Location: Gro�wechsungen
(51.4926°N, 10.6901°E)
Time: 02:18:01
(UTC+00:00)

USA 234 - Pass Details

Date: 18 September 2020
Orbit: 1102 x 1106 km, 123.0° (Epoch: 16 October)

Event Time Altitude Azimuth Distance (km) Brightness Sun altitude
Rises 21:58:53 0° 68° (ENE) 3,925 6.2 -34.9°
Reaches altitude 10° 22:01:23 10° 65° (ENE) 2,966 5.5 -35.1°
Enters shadow 22:03:22 21° 61° (ENE) 2,246 4.9 -35.2°
Exits shadow 22:06:55 57° 23° (NNE) 1,291 3.7 -35.4°
Maximum altitude 22:07:49 62° 347° (NNW) 1,232 3.6 -35.4°
Drops below altitude 10° 22:14:15 10° 269° (W) 2,965 5.6 -35.7°
Sets 22:16:45 0° 266° (W) 3,922 6.3 -35.9°
